SL-14 R/B, 15945

Orbit data source: Space-Track

SL-14 R/B, 15945 is space debris in LEO originally from a launch on Thu, 08 Aug 1985 UTC launched from the Plesetsk Missile And Space Complex (PKMTR). Debris objects in space refer to the collection of defunct objects orbiting the Earth. Examples of debris include non-operational satellites, rocket bodies, and fragments generated from explosions, collisions, or faulty payload assembly.

Loading next visibility...
Identifier
15945, 1985-069B
Orbit
LEO
Country
Flag of CISCIS
Related business
Manufacturer
Yuzhnoe
Mission
Spacecraft
Bus & Motor
S5M, Unknown motor
Mass
1,600 kg wet, 1,600 kg dry
Launch date (UTC)
1985-08-08 (41 years ago)
Launch vehicle
Unknown
Launch site
Plesetsk Missile And Space Complex (PKMTR)
Object type
Payload
Rocket body
Debris
Shape & HBR
Unknown
Radar Cross Section
Large (>1 m²)

Expand to show TLE details & history
Last TLE update: 14 hours ago

TLE from 14 hours ago
0 SL-14 R/B
1 15945U 85069B   26093.78691560  .00000821  00000-0  89774-4 0  9994
2 15945  82.5304   1.3406 0020291 107.7626 252.5807 14.86462344176561
Epoch: 2026-04-03T18:53Z
TLE epoch observation values (Epoch: 2026-04-03T18:53:09.507Z)
Latitude
-0.00007°
Longitude
-114.06506°
Altitude
616.314 km
Speed
7.549 km/s
True Right ascension
00h 05m 21s
True Declination
0° 00' 00"
Sunlit
Object was in daylight at epoch
Visualization orbit readout
Latitude
Unknown
Longitude
Unknown
Altitude
Unknown
Speed
Unknown
Apparent Right ascension
Unknown
Apparent Declination
Unknown
Sunlit
N/A
Visualization observer readout
Local Sidereal Time
14:30:37
Azimuth
Unknown
Elevation
Unknown
Doppler factor
Unknown
Orbital elements
Apogee altitude
620.185 km
Perigee altitude
591.841 km
Semi-major axis
6,984.15 km
Eccentricity
0.00203
Inclination
82.5304°
RAAN
1.3406°
Arg. of periapsis
107.7626°
True anomaly
252.35901°
Mean anomaly
252.5807°
Eccentric anomaly
252.46984°
Mean motion
3.71854 °/min
Orbital period
96.81 mins
BSTAR
0.000089774
Loading maneuver chart data...
Computing Atmospheric mass density...
Loading historical data...
Loading historical data...
Loading historical data...
Loading historical data...
Loading historical data...
Loading historical data...
Loading historical data...
Other satellites on launch #69 in the year 1985 (1985-08-08 UTC)

Documentation

Showing up to 5 results
|